Regional Weather Roundup
Issued by NWS Charleston, SC

Current Version | Previous Version | Graphics & Text | Print | Product List | Glossary On
Versions: 1 2 3 4 5 6 7 8 9 10 11 12 13 14 15 16 17 18 19 20 21 22 23 24 25 26 27 28 29 30 31 32 33 34 35 36 37 38 39 40 41 42 43 44 45 46 47 48 49 50
000
ASUS42 KCHS 221842
RWRCHS

REGIONAL WEATHER ROUNDUP
NATIONAL WEATHER SERVICE CHARLESTON SC
200 PM EDT FRI SEP 22 2017

NOTE: "FAIR" INDICATES FEW OR NO CLOUDS BELOW 12,000 FEET WITH NO
SIGNIFICANT WEATHER AND/OR OBSTRUCTIONS TO VISIBILITY.

NOT ALL STATIONS ARE QUALITY CONTROLLED. USE DATA WITH CAUTION...
ESPECIALLY DEWPOINT OBSERVATIONS.

SCZ027-030-031-034>040-042>050-221900-
...SOUTHEAST SOUTH CAROLINA...

CITY           SKY/WX    TMP DP  RH WIND       PRES   REMARKS
N CHARLESTON   MOSUNNY   87  69  54 CALM      30.02F HX  91
6HR MIN TEMP:  71; 6HR MAX TEMP:  88;

WATERFRONT PRK   N/A     84  74  72 E6        29.87F HX  91
JOHNS ISLAND   FAIR      86  75  70 E6        30.01F HX  95
PINOPOLIS        N/A     79  73  83 NW5       29.97F
MONCKS CORNER  FAIR      84  70  61 N8        30.02F
SUMMERVILLE    FAIR      86  70  58 N6        30.03F HX  90
BEAUFORT MCAS  MOSUNNY   87  71  58 E7        30.02F HX  93
6HR MIN TEMP:  72; 6HR MAX TEMP:  88;

BEAUFORT ARPT  FAIR      82  72  69 NE6       30.01F
HILTON HEAD IS MOSUNNY   82  73  74 E7        30.03F
WALTERBORO     MOCLDY    86  68  54 CALM      30.03F
ALLENDALE      NOT AVBL

...SOUTHERN MIDLANDS AND PEE DEE...

CITY           SKY/WX    TMP DP  RH WIND       PRES   REMARKS
GEORGETOWN     FAIR      82  73  74 E6        30.03F
KINGSTREE      FAIR      84  68  58 CALM      30.03F
ORANGEBURG     MOSUNNY   86  68  54 VRB7      30.04F
6HR MIN TEMP:  69; 6HR MAX TEMP:  87;

BARNWELL       MOCLDY    90  72  55 E6        30.02F HX  96
AIKEN          LGT RAIN  86  68  54 NE6       30.06F
MANNING        FAIR      86  68  54 MISG      30.03F
COLUMBIA       MOSUNNY   89  68  49 NE7       30.03F HX  93
6HR MIN TEMP:  72; 6HR MAX TEMP:  89;

SUMTER         MOSUNNY   88  67  49 N3        30.02F HX  91
6HR MIN TEMP:  67; 6HR MAX TEMP:  88;

FLORENCE       SUNNY     85  67  54 E6        30.04F
6HR MIN TEMP:  67; 6HR MAX TEMP:  86;

MYRTLE BEACH   MOSUNNY   84  68  58 E9        30.04
N MYRTLE BEACH SUNNY     84  69  60 SE8       30.03F
6HR MIN TEMP:  69; 6HR MAX TEMP:  85;


$$

GAZ063-065-086>088-099>101-113>116-118-119-134>141-150-221900-
...SOUTHEAST GEORGIA...

CITY           SKY/WX    TMP DP  RH WIND       PRES   REMARKS
SAVANNAH ARPT  MOSUNNY   89  69  51 E9        30.02F HX  93
6HR MIN TEMP:  71; 6HR MAX TEMP:  90;

HUNTER AAF     SUNNY     86  72  63 E12       29.99F HX  92
6HR MIN TEMP:  72; 6HR MAX TEMP:  86; 6HR PCP: TRACE;

FORT STEWART   PTSUNNY   86  70  58 NE7       29.99F HX  91
6HR MIN TEMP:  71; 6HR MAX TEMP:  88;

STATESBORO     SUNNY     89  63  41 E6        30.02F HX  90
SYLVANIA       CLEAR     88  74  62 SE6       30.03F HX  96
CLAXTON        FAIR      90  67  47 N9        30.01F HX  93

...CSRA...CENTRAL AND FAR SOUTHEAST GEORGIA...

CITY           SKY/WX    TMP DP  RH WIND       PRES   REMARKS
THOMSON        PTSUNNY   87  69  54 E8        30.08F HX  91
AUGUSTA-BUSH   PTSUNNY   81  69  67 SE10      30.00F
6HR MIN TEMP:  68; 6HR MAX TEMP:  91;

AUGUSTA-DANIEL PTSUNNY   90  68  48 N6        30.03F HX  94
SWAINSBORO     FAIR      86  70  58 E5        30.02F HX  90
VIDALIA        PTSUNNY   88  70  55 NE9       30.02F HX  92
EASTMAN        FAIR      91  54  28 E6        30.04F
HAZLEHURST     FAIR      89  53  29 NE6       30.00F
ALMA           SUNNY     89  68  49 E7        30.01F HX  93
6HR MIN TEMP:  69; 6HR MAX TEMP:  89;

WAYCROSS       MOSUNNY   88  65  46 E10       30.00F HX  90
JESUP          NOT AVBL
BAXLEY         FAIR      84  66  54 NE6       30.00F
BRUNSWICK      MOSUNNY   84  70  61 NE12      30.01F
SAINT SIMONS   MOSUNNY   86  74  67 NE13      30.01F HX  94
6HR MIN TEMP:  76; 6HR MAX TEMP:  87;


$$

SCZ027-028-034-036>038-045-046-048>050-GAZ119-141-221900-
...LAKE AND SUPPLEMENTAL COASTAL OBSERVATIONS...

STATION/POSITION TIME  TEMP    WIND        PRES    WAVE   SWELL
                       AIR SEA DIR/SP/G            HT/PER HT/PER/DIR
                 (UTC) (F)     (DEG/KT/KT) (MB)    (FT/S) (FT/S/D)
WINYAH BAY       1730   78      80/  7     1017.0F
LAKE MURRAY      1820   85     180/  4/  6 1015.9F
ACE BASIN NERRS  1745   87     110/  1     1016.0F
FORT PULASKI     1800   80 81   90/  7/ 12 1016.8
SAPELO ISLAND    1800   84        CALM     1016.0

$$

ANZ835-935-AMZ111-154-330-350-352-354-370-450-454-472-221900-
...C-MAN AND BUOY OBSERVATIONS...

STATION/POSITION TIME  TEMP    WIND        PRES    WAVE   SWELL
                       AIR SEA DIR/SP/G            HT/PER HT/PER/DIR
                 (UTC) (F)     (DEG/KT/KT) (MB)    (FT/S) (FT/S/D)
BUOY 41004       1810   79 82   50/ 10/ 14 1016.0
BUOY 41008       1750   80 81   50/ 12/ 14 1015.8F   3/11   2/100/11
FOLLY BEACH CMAN 1800   80      90/  9/ 10 1017.3F
CAPERS NEARSHORE 1808   79 82   70/ 10/ 14 1016.3F
FRIPP NEARSHORE  1808   80      60/  8/ 12 1023.7S


STATION/POSITION TIME  TEMP    WIND        PRES    WAVE   SWELL
                       AIR SEA DIR/SP/G            HT/PER HT/PER/DIR
                 (UTC) (F)     (DEG/KT/KT) (MB)    (FT/S) (FT/S/D)
5E ST. MARYS GA  1800      82                N/A     4/12   2/100/12
FRYING PAN BUOY  1810   81 83   90/ 10/ 14 1016.4
BUOY 41025       1750   77 78  310/  4/  6 1016.9F   6/11   7/ 70/11
CAPE LOOKOUT NC  1800   82     170/  5/  6 1016.4F
BUOY 41002       1750   79 81   70/  6/  8 1015.7F   6/12   5/ 90/12
BUOY 41010       1810           80/ 19/ 21 1014.4
ST AUGUSTINE FL  1800   79 83   60/ 16/ 18 1015.3F


$$




USA.gov is the U.S. government's official web portal to all federal, state and local government web resources and services.